DW2715 Weather Reports


Display with metric or nautical units.
time (UTC)temp
F
wind
direction
speed
MPH
gust
MPH
rain 1hr
in
rain 24hr
in
rain mn
in
humidity
%
barometer
mb
20260904015602 72 179 0.0 0.0 0.00 0.00 0.00 69 1018.5
20260904014602 72 179 0.0 0.0 0.00 0.00 0.00 69 1018.5
20260904014102 72 179 0.0 0.0 0.00 0.00 0.00 70 1018.5
20260904013105 72 179 0.0 0.0 0.00 0.00 0.00 71 1018.4
20260904012602 72 179 0.0 0.0 0.00 0.00 0.00 72 1018.4
20260904012103 72 179 0.0 0.0 0.00 0.00 0.00 73 1018.4
20260904011602 72 179 0.0 0.0 0.00 0.00 0.00 74 1018.5
20260904011102 72 179 0.0 0.0 0.00 0.00 0.00 74 1018.5
20260904010602 72 179 0.0 0.0 0.00 0.00 0.00 74 1018.5
20260904005602 72 179 0.0 0.0 0.00 0.00 0.00 74 1018.5
20260904005105 72 179 0.0 0.0 0.00 0.00 0.00 74 1018.6
20260904004101 72 179 0.0 0.0 0.00 0.00 0.00 73 1018.5
20260904003600 72 179 0.0 0.0 0.00 0.00 0.00 73 1018.5
20260904003058 72 179 0.0 0.0 0.00 0.00 0.00 73 1018.5
20260904002555 72 179 0.0 0.0 0.00 0.00 0.00 73 1018.5
20260904002055 72 179 0.0 0.0 0.00 0.00 0.00 73 1018.5
20260904000053 73 179 0.0 0.0 0.00 0.00 0.00 71 1018.6
20260903235051 73 179 0.0 0.0 0.00 0.00 0.00 70 1018.6
20260903234552 73 179 0.0 0.0 0.00 0.00 0.00 70 1018.6
20260903234052 73 179 0.0 0.0 0.00 0.00 0.00 70 1018.6
20260903233551 74 179 0.0 0.0 0.00 0.00 0.00 69 1018.6
20260903232550 74 179 0.0 0.0 0.00 0.00 0.00 69 1018.6
20260903232051 74 179 0.0 0.0 0.00 0.00 0.00 68 1018.7
20260903231551 74 179 0.0 0.0 0.00 0.00 0.00 68 1018.7
20260903231051 74 179 0.0 0.0 0.00 0.00 0.00 67 1018.6
20260903230551 74 179 0.0 0.0 0.00 0.00 0.00 67 1018.7
20260903230051 74 179 0.0 0.0 0.00 0.00 0.00 66 1018.7
20260903225551 74 179 0.0 0.0 0.00 0.00 0.00 66 1018.8
20260903224552 75 179 0.0 0.0 0.00 0.00 0.00 66 1018.7
20260903224051 75 179 0.0 0.0 0.00 0.00 0.00 65 1018.6
20260903223550 75 179 0.0 0.0 0.00 0.00 0.00 65 1018.6
20260903223044 75 179 0.0 0.0 0.00 0.00 0.00 65 1018.6
20260903222538 75 180 0.0 0.0 0.00 0.00 0.00 64 1018.6
20260903222031 75 181 0.0 0.0 0.00 0.00 0.00 64 1018.6
20260903221530 75 182 0.0 0.0 0.00 0.00 0.00 64 1018.6
20260903221033 75 182 0.0 0.0 0.00 0.00 0.00 64 1018.5
20260903220032 75 182 0.0 0.0 0.00 0.00 0.00 63 1018.4
20260903215030 76 182 0.0 0.0 0.00 0.00 0.00 62 1018.2
20260903214530 76 182 0.0 0.0 0.00 0.00 0.00 62 1018.1
20260903214031 76 182 0.0 0.0 0.00 0.00 0.00 61 1018.1
20260903213530 76 182 0.0 0.0 0.00 0.00 0.00 61 1018.0
20260903213029 76 182 0.0 0.0 0.00 0.00 0.00 60 1018.1
20260903212531 76 182 0.0 0.0 0.00 0.00 0.00 60 1018.0
20260903212030 76 182 0.0 0.0 0.00 0.00 0.00 60 1018.0
20260903211530 76 182 0.0 0.0 0.00 0.00 0.00 59 1018.0
20260903211030 76 182 0.0 0.0 0.00 0.00 0.00 59 1018.0
20260903210530 76 182 0.0 0.0 0.00 0.00 0.00 59 1018.0
20260903210032 76 182 0.0 0.0 0.00 0.00 0.00 59 1018.0
20260903205530 77 182 0.0 0.0 0.00 0.00 0.00 58 1018.0
20260903205030 77 182 0.0 0.0 0.00 0.00 0.00 58 1018.1
20260903204531 77 182 0.0 0.0 0.00 0.00 0.00 58 1018.1
20260903204030 77 182 0.0 0.0 0.00 0.00 0.00 57 1018.1
20260903203531 77 182 0.0 0.0 0.00 0.00 0.00 57 1018.1
20260903203030 78 182 0.0 0.0 0.00 0.00 0.00 56 1018.0
20260903202530 78 182 0.0 0.0 0.00 0.00 0.00 55 1018.1
20260903202028 78 182 0.0 0.0 0.00 0.00 0.00 55 1018.0
20260903201528 78 182 0.0 0.0 0.00 0.00 0.00 54 1018.0
20260903201023 78 182 0.0 0.0 0.00 0.00 0.00 54 1017.9
20260903200522 78 182 0.0 0.0 0.00 0.00 0.00 53 1017.9
20260903193510 79 181 0.0 0.0 0.00 0.00 0.00 49 1017.8
20260903193008 79 181 0.0 0.0 0.00 0.00 0.00 49 1017.7
20260903192507 80 182 0.0 0.0 0.00 0.00 0.00 49 1017.8
20260903192005 80 181 0.0 0.0 0.00 0.00 0.00 49 1017.8
20260903191504 80 182 0.0 0.0 0.00 0.00 0.00 48 1017.7
20260903191003 80 185 0.0 0.0 0.00 0.00 0.00 48 1017.6
20260903190504 80 185 0.0 0.0 0.00 0.00 0.00 47 1017.6
20260903190003 80 185 0.0 0.0 0.00 0.00 0.00 48 1017.6
20260903185502 81 181 0.0 0.0 0.00 0.00 0.00 48 1017.5
20260903185001 81 180 0.0 0.0 0.00 0.00 0.00 48 1017.5
20260903184455 81 176 0.0 0.0 0.00 0.00 0.00 48 1017.5
20260903183449 81 157 0.0 0.0 0.00 0.00 0.00 48 1017.3
20260903182950 82 163 0.0 0.0 0.00 0.00 0.00 48 1017.5
20260903182449 82 165 0.0 0.0 0.00 0.00 0.00 47 1017.3
20260903181947 82 150 0.0 0.0 0.00 0.00 0.00 48 1017.2
20260903181447 82 161 0.0 0.0 0.00 0.00 0.00 48 1017.2
20260903180944 82 155 0.0 0.0 0.00 0.00 0.00 48 1017.2
20260903175942 83 167 0.0 0.0 0.00 0.00 0.00 48 1017.1
20260903175440 83 145 0.0 0.0 0.00 0.00 0.00 47 1017.1
20260903174938 83 140 0.0 0.0 0.00 0.00 0.00 47 1017.0
20260903173936 84 146 0.0 2.0 0.00 0.00 0.00 46 1017.0
20260903172933 85 159 0.0 2.0 0.00 0.00 0.00 45 1017.1
20260903172434 85 134 0.0 0.0 0.00 0.00 0.00 45 1017.1
20260903171933 85 156 0.0 2.0 0.00 0.00 0.00 45 1017.1
20260903171433 86 146 0.0 2.0 0.00 0.00 0.00 44 1017.1
20260903170934 86 132 0.0 3.0 0.00 0.00 0.00 44 1017.2
20260903170431 86 141 0.0 3.0 0.00 0.00 0.00 43 1017.1
20260903165425 87 211 0.0 3.0 0.00 0.00 0.00 42 1017.1
20260903164923 87 134 0.0 3.0 0.00 0.00 0.00 41 1017.1
20260903163926 87 117 0.0 1.0 0.00 0.00 0.00 41 1017.2
20260903163424 87 119 0.0 0.0 0.00 0.00 0.00 40 1017.2
20260903162924 88 136 0.0 0.0 0.00 0.00 0.00 39 1017.2
20260903162423 89 149 0.0 7.0 0.00 0.00 0.00 38 1017.2
20260903161923 89 123 0.0 7.0 0.00 0.00 0.00 37 1017.1
20260903161426 90 123 0.0 4.0 0.00 0.00 0.00 37 1017.1
20260903160923 91 130 0.0 4.0 0.00 0.00 0.00 36 1017.0
20260903160423 91 138 0.0 5.0 0.00 0.00 0.00 35 1017.0
20260903155923 91 192 0.0 5.0 0.00 0.00 0.00 35 1016.9
20260903155422 91 163 0.0 7.0 0.00 0.00 0.00 36 1017.0
20260903154921 91 222 1.0 7.0 0.00 0.00 0.00 36 1016.8
20260903154419 91 211 1.0 7.0 0.00 0.00 0.00 36 1016.8
20260903153917 91 187 1.0 7.0 0.00 0.00 0.00 35 1016.8
20260903153417 91 172 1.0 10.0 0.00 0.00 0.00 36 1016.8
20260903152919 91 186 1.0 10.0 0.00 0.00 0.00 35 1016.8
20260903152413 92 169 1.0 6.0 0.00 0.00 0.00 35 1016.7
20260903151912 92 166 1.0 7.0 0.00 0.00 0.00 36 1016.8
20260903151411 91 186 1.0 7.0 0.00 0.00 0.00 36 1016.6
20260903150912 92 185 1.0 7.0 0.00 0.00 0.00 35 1016.6
20260903150409 92 174 1.0 7.0 0.00 0.00 0.00 36 1016.7
20260903144910 93 174 1.0 7.0 0.00 0.00 0.00 36 1017.1
20260903143410 92 185 1.0 7.0 0.00 0.00 0.00 37 1017.5
20260903142909 92 172 0.0 2.0 0.00 0.00 0.00 38 1017.5
20260903142408 92 126 0.0 0.0 0.00 0.00 0.00 37 1017.5
20260903141905 92 193 0.0 1.0 0.00 0.00 0.00 37 1017.6
20260903141405 92 117 0.0 1.0 0.00 0.00 0.00 36 1017.7
20260903140905 93 173 0.0 0.0 0.00 0.00 0.00 36 1017.7
20260903140405 93 190 1.0 6.0 0.00 0.00 0.00 36 1017.6
20260903135405 93 223 0.0 6.0 0.00 0.00 0.00 37 1017.7
20260903134906 93 178 0.0 1.0 0.00 0.00 0.00 37 1017.6
20260903134405 92 246 0.0 0.0 0.00 0.00 0.00 36 1017.7
20260903133904 93 244 0.0 0.0 0.00 0.00 0.00 35 1017.7
20260903132903 93 156 0.0 5.0 0.00 0.00 0.00 36 1017.8
20260903131903 92 165 1.0 5.0 0.00 0.00 0.00 37 1017.7
20260903131402 92 195 0.0 5.0 0.00 0.00 0.00 37 1017.7
20260903130902 92 178 0.0 6.0 0.00 0.00 0.00 39 1017.7
20260903130403 91 184 0.0 6.0 0.00 0.00 0.00 38 1017.7
20260903125902 91 123 1.0 6.0 0.00 0.00 0.00 37 1017.7
20260903125403 91 110 1.0 6.0 0.00 0.00 0.00 37 1017.8
20260903124902 91 132 1.0 4.0 0.00 0.00 0.00 38 1017.8
20260903123403 91 135 0.0 0.0 0.00 0.00 0.00 36 1018.2
20260903122902 91 156 0.0 0.0 0.00 0.00 0.00 38 1018.2
20260903122403 91 178 0.0 0.0 0.00 0.00 0.00 38 1018.2
20260903121904 90 217 0.0 0.0 0.00 0.00 0.00 38 1018.2
20260903121404 89 306 0.0 0.0 0.00 0.00 0.00 38 1018.2
20260903120903 90 131 0.0 0.0 0.00 0.00 0.00 39 1018.2
20260903120402 90 200 0.0 0.0 0.00 0.00 0.00 41 1018.2
20260903115902 89 198 0.0 0.0 0.00 0.00 0.00 39 1018.1
20260903114903 89 281 0.0 0.0 0.00 0.00 0.00 38 1018.2
20260903114403 89 124 0.0 0.0 0.00 0.00 0.00 39 1018.3
20260903113902 89 134 0.0 0.0 0.00 0.00 0.00 40 1018.3
20260903112902 89 236 0.0 0.0 0.00 0.00 0.00 40 1018.5
20260903112402 89 163 0.0 3.0 0.00 0.00 0.00 39 1018.6
20260903111902 88 146 0.0 3.0 0.00 0.00 0.00 39 1018.6
20260903111401 88 121 0.0 2.0 0.00 0.00 0.00 41 1018.6
20260903110901 88 169 0.0 4.0 0.00 0.00 0.00 39 1018.7
20260903105401 88 13 0.0 0.0 0.00 0.00 0.00 43 1018.8
20260903104901 87 202 0.0 0.0 0.00 0.00 0.00 43 1018.7
20260903104401 87 159 0.0 0.0 0.00 0.00 0.00 44 1018.7
20260903103901 86 101 0.0 0.0 0.00 0.00 0.00 43 1018.8
20260903103401 87 329 0.0 2.0 0.00 0.00 0.00 43 1018.9
20260903102903 86 98 0.0 6.0 0.00 0.00 0.00 45 1018.8
20260903102401 86 90 1.0 6.0 0.00 0.00 0.00 43 1019.0
20260903101901 86 175 0.0 7.0 0.00 0.00 0.00 45 1019.0
20260903101401 86 101 0.0 7.0 0.00 0.00 0.00 44 1019.1
20260903100901 85 167 0.0 0.0 0.00 0.00 0.00 47 1019.2
20260903100401 85 200 0.0 4.0 0.00 0.00 0.00 47 1019.3
20260903095901 85 341 0.0 4.0 0.00 0.00 0.00 46 1019.3
20260903095359 85 86 0.0 2.0 0.00 0.00 0.00 45 1019.4
20260903093843 84 82 0.0 4.0 0.00 0.00 0.00 48 1019.4
20260903093334 84 125 0.0 3.0 0.00 0.00 0.00 46 1019.5
20260903092833 84 83 0.0 4.0 0.00 0.00 0.00 47 1019.6
20260903091831 83 136 0.0 3.0 0.00 0.00 0.00 51 1019.6
20260903091332 83 5 0.0 3.0 0.00 0.00 0.00 51 1019.7
20260903090829 83 123 0.0 1.0 0.00 0.00 0.00 51 1019.6
20260903085830 82 62 0.0 5.0 0.00 0.00 0.00 51 1019.6
20260903085328 82 46 0.0 8.0 0.00 0.00 0.00 50 1019.6
20260903084831 82 79 0.0 8.0 0.00 0.00 0.00 51 1019.6
20260903084328 82 11 0.0 3.0 0.00 0.00 0.00 52 1019.6
20260903083829 82 17 1.0 3.0 0.00 0.00 0.00 52 1019.5
20260903083328 82 10 0.0 4.0 0.00 0.00 0.00 52 1019.5
20260903082329 81 77 1.0 5.0 0.00 0.00 0.00 53 1019.5
20260903081328 81 85 0.0 6.0 0.00 0.00 0.00 53 1019.5
20260903080829 80 98 0.0 4.0 0.00 0.00 0.00 54 1019.5
20260903080330 80 40 0.0 5.0 0.00 0.00 0.00 53 1019.6
20260903075829 80 53 0.0 5.0 0.00 0.00 0.00 53 1019.5
20260903075329 80 72 0.0 3.0 0.00 0.00 0.00 53 1019.5
20260903074830 79 341 0.0 2.0 0.00 0.00 0.00 54 1019.5
20260903074328 79 26 0.0 2.0 0.00 0.00 0.00 54 1019.5
20260903073830 79 65 0.0 4.0 0.00 0.00 0.00 55 1019.5
20260903072829 78 17 0.0 2.0 0.00 0.00 0.00 55 1019.4
20260903072329 78 46 0.0 3.0 0.00 0.00 0.00 56 1019.4
20260903070829 77 63 0.0 4.0 0.00 0.00 0.00 59 1019.4
20260903070330 76 13 0.0 4.0 0.00 0.00 0.00 60 1019.4
20260903065829 76 15 0.0 4.0 0.00 0.00 0.00 62 1019.4
20260903065329 76 309 0.0 0.0 0.00 0.00 0.00 65 1019.3
20260903064828 75 355 0.0 0.0 0.00 0.00 0.00 66 1019.3
20260903063829 74 351 0.0 0.0 0.00 0.00 0.00 69 1019.4
20260903063329 74 350 0.0 0.0 0.00 0.00 0.00 70 1019.3
20260903062830 73 350 0.0 0.0 0.00 0.00 0.00 72 1019.3
20260903061829 72 350 0.0 0.0 0.00 0.00 0.00 73 1019.1
20260903061329 72 350 0.0 0.0 0.00 0.00 0.00 73 1019.1
20260903060829 72 355 0.0 0.0 0.00 0.00 0.00 74 1019.0
20260903060328 72 355 0.0 0.0 0.00 0.00 0.00 74 1019.0
20260903055828 71 355 0.0 0.0 0.00 0.00 0.00 74 1019.0
20260903055329 71 355 0.0 0.0 0.00 0.00 0.00 75 1019.0
20260903054829 71 355 0.0 0.0 0.00 0.00 0.00 76 1018.9
20260903054330 71 5 0.0 0.0 0.00 0.00 0.00 76 1018.9
20260903053829 70 5 0.0 0.0 0.00 0.00 0.00 76 1018.9
20260903052828 70 5 0.0 0.0 0.00 0.00 0.00 77 1018.8
20260903052322 69 5 0.0 0.0 0.00 0.00 0.00 79 1018.8
20260903051816 69 5 0.0 0.0 0.00 0.00 0.00 79 1018.7
20260903051309 69 5 0.0 0.0 0.00 0.00 0.00 80 1018.7
20260903050807 69 5 0.0 0.0 0.00 0.00 0.00 81 1018.5
20260903050306 69 5 0.0 0.0 0.00 0.00 0.00 80 1018.4
20260903045806 69 5 0.0 0.0 0.00 0.00 0.00 80 1018.4
20260903043804 69 5 0.0 0.0 0.00 0.00 0.00 80 1018.1
20260903043305 69 5 0.0 0.0 0.00 0.00 0.00 79 1018.2
20260903042802 69 5 0.0 0.0 0.00 0.00 0.00 79 1018.2
20260903042305 69 5 0.0 0.0 0.00 0.00 0.00 79 1018.2
20260903041303 69 5 0.0 0.0 0.00 0.00 0.00 79 1018.1
20260903040804 69 5 0.0 0.0 0.00 0.00 0.00 79 1018.1
20260903040303 69 5 0.0 0.0 0.00 0.00 0.00 80 1018.1
20260903035804 69 5 0.0 0.0 0.00 0.00 0.00 80 1018.1
20260903035306 69 5 0.0 0.0 0.00 0.00 0.00 80 1018.0
20260903034802 69 9 0.0 0.0 0.00 0.00 0.00 81 1018.1
20260903034303 70 5 0.0 0.0 0.00 0.00 0.00 81 1018.2
20260903033802 70 5 0.0 0.0 0.00 0.00 0.00 80 1018.1
20260903033302 70 5 0.0 0.0 0.00 0.00 0.00 80 1018.1
20260903032802 70 5 0.0 0.0 0.00 0.00 0.00 80 1018.1
20260903032305 70 5 0.0 0.0 0.00 0.00 0.00 80 1018.1
20260903031803 70 5 0.0 0.0 0.00 0.00 0.00 80 1018.2
20260903031302 70 5 0.0 0.0 0.00 0.00 0.00 80 1018.2
20260903030802 70 5 0.0 0.0 0.00 0.00 0.00 80 1018.2
20260903030302 70 5 0.0 0.0 0.00 0.00 0.00 81 1018.1
20260903025803 70 5 0.0 0.0 0.00 0.00 0.00 81 1018.1
20260903025305 70 5 0.0 0.0 0.00 0.00 0.00 80 1018.0
20260903024802 70 5 0.0 0.0 0.00 0.00 0.00 80 1018.0
20260903023803 71 5 0.0 0.0 0.00 0.00 0.00 80 1018.1
20260903023306 71 5 0.0 0.0 0.00 0.00 0.00 80 1018.1
20260903022803 71 5 0.0 0.0 0.00 0.00 0.00 80 1018.1
20260903022305 71 5 0.0 0.0 0.00 0.00 0.00 79 1018.2
20260903021802 71 5 0.0 0.0 0.00 0.00 0.00 79 1018.1
20260903021302 71 5 0.0 0.0 0.00 0.00 0.00 79 1018.2